Retour au catalogue

PRAETORIAN SDA_513

ActifPO
NORAD 100071·PAYLOAD·🇺🇸 United States

Lancé Jul 16, 2026 depuis Vandenberg Space Force Base

Loading…

Prochains Passages (prochaines 24 heures)

TLE

FraisSource: Space-Track

Époque: Sep 14, 2026, 09:46 UTC

1 A0071U 26163N   26257.40728333  .00000087  00000-0  65324-4 0  9997
2 A0071  81.4807 255.5518 0014236  56.5449 303.7068 13.85454957  8251

Suivez PRAETORIAN SDA_513 en temps réel avec AllMySat

Download on the App Store